Погода в Ахтополе

Болгария     42°05′51″N   27°56′07″E
темп.,
°C
ветер,
м/с
пор.,
м/с
влажн.,
%
обл.,
%
осадки,
мм/ч
давл.,
гПа
погр.,
м
13 мая, чт
чт1300:00+12ю2370100 0.0 1010126
03:00+10ююз227873 0.0 100955
06:00+9з11780 0.0 100928
09:00+15юв13652 0.0 1009311
12:00+18вюв44580 0.0 1008595
15:00+19вюв45580 0.0 1007606
18:00+18вюв34660 0.0 1007414
21:00+15ююв34845 0.0 100761
14 мая, пт
пт1400:00+17юз5126380 0.0 1007360
03:00+17зюз41059100 0.0 1008300
06:00+13ссв22835 0.0 100929
09:00+17юз25749 0.1 1010316
12:00+17ююв138249 2.4 1011291
15:00+19всв04840 7.8 1011381
18:00+16в44932 4.4 1011168
21:00+14ююз22925 4.9 101230
15 мая, сб
сб1500:00+13юз229384 0.0 101221
03:00+13сз229091 0.0 101224
06:00+12зюз218874 0.0 101231
09:00+17ююз117443 0.0 1013159
12:00+19в326398 0.0 1012591
15:00+19в3465100 0.0 1011383
18:00+18юв247299 0.0 1010190
21:00+15ююв2385100 0.0 101048
16 мая, вс
вс1600:00+15юз1183100 0.0 100910
03:00+15зсз2283100 0.1 100925
06:00+14сз3386100 0.3 100962
09:00+16ссз238638 0.6 1009197
12:00+19св4565100 0.0 1009724
15:00+18ссв45665 0.0 1008557
18:00+18с33681 0.0 1007406
21:00+14с22880 0.0 100841
17 мая, пн
пн1700:00+12з23903 0.0 100950
03:00+12з228219 0.0 100938
06:00+13з33755 0.0 100957
09:00+18з02685 0.0 1010345
12:00+19вюв326297 0.1 1011593
15:00+20в336432 0.1 1010436
18:00+19юв336930 0.0 1010157
21:00+17ю228573 0.0 101117